Overview Statistics Trail Chart Weather Telemetry Raw packets
 

This is the latest recevied weather packets stored in our database for station/object W5GMO. If no packets are shown the sender has not sent any weather packets the latest 10 day(s).

<< 25 26 27 28 29 30 31 >>
Time Temp. Humidity Pressure Rain* Wind** Luminosity Snow
1788465182 33.33° C 1% 1014.5 hPa 0 mm - 479 W/m² -
1788464877 33.89° C 1% 1014.5 hPa 0 mm - 510 W/m² -
1788464573 33.33° C 1% 1014.5 hPa 0 mm - 547 W/m² -
1788464269 33.33° C 1% 1014.8 hPa 0 mm - 552 W/m² -
1788463989 33.33° C 1% 1014.6 hPa 0 mm - 548 W/m² -
1788463660 32.78° C 1% 1014.9 hPa 0 mm - 624 W/m² -
1788463355 32.22° C 1% 1015 hPa 0 mm - 749 W/m² -
1788463052 32.22° C 1% 1015 hPa 0 mm - 371 W/m² -
1788462746 32.22° C 1% 1015 hPa 0 mm - 307 W/m² -
1788462435 31.67° C 1% 1015.1 hPa 0 mm - 304 W/m² -
1788462135 31.67° C 1% 1015.3 hPa 0 mm - 328 W/m² -
1788461830 31.67° C 1% 1015.4 hPa 0 mm - 304 W/m² -
1788461530 31.11° C 1% 1015.5 hPa 0 mm - 310 W/m² -
1788461227 31.11° C 1% 1015.5 hPa 0 mm - 306 W/m² -
1788460922 31.67° C 1% 1015.5 hPa 0 mm - 319 W/m² -
1788460621 31.67° C 1% 1015.4 hPa 0 mm - 316 W/m² -
1788460316 31.11° C 1% 1015.4 hPa 0 mm - 377 W/m² -
1788460015 31.11° C 1% 1015.3 hPa 0 mm - 467 W/m² -
1788459711 31.11° C 1% 1015.8 hPa 0 mm - 395 W/m² -
1788459409 30.56° C 1% 1015.8 hPa 0 mm - 517 W/m² -
1788459105 30.56° C 1% 1015.5 hPa 0 mm - 462 W/m² -
1788458800 30.56° C 1% 1015.4 hPa 0 mm - 445 W/m² -
1788458500 31.11° C 1% 1015.3 hPa 0 mm - 366 W/m² -
1788458199 30.56° C 1% 1015.4 hPa 0 mm - 443 W/m² -
1788457898 30.56° C 1% 1015.6 hPa 0 mm - 587 W/m² -

* Rain latest hour (hover to see other rain measurements)
** Current wind speed in m/s (hover to see current wind gust speed)